sat.trackr.live / text

‹ back to catalog

STARLINK-31951

NORAD 59890 · 2024-100F

PAYLOAD ACTIVE UNKNOWN

§ Identity

Operator
Country
US
Launch date
2024-05-28
Launch site
AFETR
Launch vehicle
Mass (kg)
RCS (m²)

Purposes: comms

External: N2YO · Heavens-Above · Gunter

§ Orbital elements

Epoch: 2026-05-25T00:34:59.755008Z

Period
94.27 min
Inclination
43.0022°
Eccentricity
0.0001282
Mean motion
15.27583311 rev/d
Perigee alt
482.2 km
Apogee alt
483.9 km
Semi-major
6,861.2 km
B*
3.5816e-5
RAAN
54.0934°
Arg perigee
253.4296°
Mean anomaly
106.6415°
Rev number
11,273

§ Raw data

STARLINK-319511 59890U 24100F   26145.02430272  .00000724  00000+0  35816-4 0  99952 59890  43.0022  54.0934 0001282 253.4296 106.6415 15.27583311112736

JSON: /api/v1/satellites/59890 · /tle

For live sub-satellite position, see the globe view (requires WebGL).

§ Visibility from observer

Set your observer location to see the next 7 days of passes ≥ 10°. The values pass through the URL so the page stays shareable.

No JS? Fill the form by hand. The geolocation button needs JavaScript.